Precipitable_Water
0.50 0.41 0.34 0.38 0.39 0.35 0.34 0.32 0.27 0.25 0.25 0.37 0.50 0.72 1.02 1.28 1.25 1.36 1.38 1.46 1.42 1.32 1.47 1.44 1.46 1.47 1.36 1.34 1.23 1.21 1.14 1.27 1.27 1.31 1.34 1.44 1.51 1.69 1.82 1.88 1.91 1.88 1.86 1.86
0.42 0.33 0.43 0.43 0.40 0.36 0.32 0.30 0.27 0.27 0.27 0.24 0.34 0.58 0.86 0.97 0.99 1.13 1.19 1.35 1.36 1.29 1.39 1.44 1.52 1.46 1.32 1.26 1.27 1.18 1.16 1.23 1.29 1.27 1.36 1.45 1.51 1.65 1.75 1.84 1.79 1.79 1.79 1.68
0.32 0.34 0.40 0.40 0.38 0.31 0.29 0.29 0.28 0.27 0.27 0.28 0.24 0.48 0.69 0.86 0.94 1.07 1.28 1.59 1.53 1.22 1.28 1.36 1.46 1.41 1.37 1.25 1.24 1.16 1.16 1.19 1.25 1.25 1.32 1.43 1.52 1.56 1.68 1.68 1.80 1.66 1.64 1.67
0.34 0.41 0.37 0.37 0.33 0.34 0.26 0.33 0.32 0.27 0.25 0.20 0.26 0.21 0.52 0.70 0.73 0.89 1.31 1.41 1.44 1.54 1.28 1.40 1.45 1.38 1.32 1.26 1.28 1.27 1.19 1.16 1.19 1.23 1.18 1.26 1.27 1.33 1.59 1.61 1.58 1.61 1.52 1.58
0.31 0.33 0.37 0.34 0.35 0.34 0.27 0.33 0.30 0.28 0.24 0.23 0.22 0.22 0.24 0.63 0.70 0.81 1.07 1.27 1.51 1.50 1.53 1.25 1.41 1.42 1.37 1.36 1.25 1.27 1.25 1.17 1.12 1.14 1.10 1.24 1.24 1.38 1.51 1.55 1.55 1.50 1.48 1.52
0.25 0.34 0.32 0.31 0.35 0.38 0.38 0.32 0.30 0.28 0.26 0.19 0.20 0.22 0.20 0.45 0.47 0.71 0.93 1.01 1.23 1.40 1.51 1.35 1.40 1.51 1.49 1.41 1.35 1.27 1.27 1.17 1.12 1.04 1.05 1.16 1.17 1.26 1.45 1.44 1.51 1.47 1.52 1.47
0.17 0.17 0.28 0.32 0.29 0.33 0.32 0.29 0.21 0.18 0.18 0.15 0.23 0.21 0.20 0.26 0.58 0.69 0.74 0.88 1.02 1.38 1.46 1.44 1.40 1.43 1.48 1.45 1.36 1.28 1.23 1.17 1.14 1.04 1.00 1.07 1.13 1.24 1.42 1.52 1.34 1.43 1.43 1.38
0.15 0.14 0.18 0.24 0.29 0.30 0.32 0.28 0.24 0.16 0.15 0.15 0.24 0.19 0.18 0.24 0.47 0.83 0.93 0.99 1.10 1.28 1.45 1.40 1.42 1.37 1.41 1.46 1.42 1.34 1.22 1.20 1.18 1.03 0.98 1.02 1.04 1.15 1.33 1.45 1.38 1.46 1.44 1.38
0.20 0.16 0.26 0.25 0.27 0.23 0.27 0.28 0.30 0.26 0.25 0.20 0.24 0.27 0.26 0.28 0.25 0.51 0.69 0.91 1.08 1.31 1.49 1.57 1.43 1.39 1.38 1.45 1.41 1.38 1.32 1.26 1.25 1.15 1.00 1.05 1.03 1.03 1.20 1.33 1.52 1.44 1.44 1.41
0.26 0.18 0.24 0.26 0.28 0.26 0.23 0.26 0.26 0.28 0.20 0.17 0.22 0.23 0.23 0.30 0.31 0.34 0.47 0.61 0.93 1.31 1.40 1.54 1.73 1.53 1.49 1.51 1.58 1.53 1.53 1.40 1.36 1.27 1.14 1.03 1.08 1.00 1.06 1.21 1.34 1.41 1.42 1.46
0.29 0.24 0.19 0.24 0.22 0.23 0.25 0.25 0.28 0.30 0.28 0.22 0.18 0.21 0.31 0.33 0.48 0.45 0.39 0.54 0.83 1.13 1.21 1.47 1.70 1.74 1.56 1.56 1.61 1.64 1.65 1.54 1.50 1.41 1.30 1.12 1.07 1.15 1.11 1.14 1.19 1.31 1.32 1.42
0.35 0.28 0.20 0.20 0.27 0.30 0.27 0.24 0.27 0.23 0.24 0.29 0.30 0.27 0.34 0.42 0.51 0.57 0.43 0.54 0.77 0.95 1.00 1.14 1.20 1.54 1.67 1.72 1.58 1.59 1.68 1.66 1.55 1.52 1.37 1.31 1.15 1.15 1.09 1.09 1.16 1.20 1.22 1.34
0.34 0.28 0.21 0.20 0.21 0.26 0.27 0.27 0.28 0.30 0.30 0.26 0.26 0.29 0.49 0.52 0.56 0.67 0.62 0.67 0.79 0.86 1.01 1.11 1.31 1.12 1.70 1.93 1.65 1.52 1.62 1.68 1.70 1.58 1.45 1.34 1.35 1.17 1.11 1.05 1.08 1.17 1.14 1.20
0.36 0.27 0.23 0.19 0.23 0.31 0.29 0.28 0.29 0.26 0.22 0.24 0.27 0.32 0.45 0.52 0.56 0.66 0.65 0.75 0.85 0.88 1.00 1.18 1.34 1.35 1.60 1.95 1.84 1.68 1.63 1.71 1.76 1.73 1.51 1.33 1.29 1.33 1.26 1.17 1.10 1.12 1.09 1.15
0.35 0.23 0.26 0.26 0.27 0.33 0.30 0.31 0.29 0.25 0.22 0.21 0.24 0.32 0.42 0.53 0.60 0.68 0.74 0.88 0.85 1.16 1.30 1.36 1.49 1.34 1.38 1.69 1.72 1.60 1.79 1.75 1.80 1.80 1.69 1.43 1.38 1.40 1.41 1.39 1.30 1.14 1.20 1.16
0.39 0.27 0.31 0.26 0.30 0.29 0.30 0.33 0.33 0.29 0.24 0.21 0.22 0.30 0.45 0.50 0.58 0.65 0.74 0.82 0.88 0.90 1.21 1.32 1.47 1.34 1.39 1.38 1.62 1.61 1.68 1.78 1.72 1.77 1.76 1.70 1.56 1.44 1.35 1.35 1.41 1.36 1.23 1.28
0.34 0.31 0.29 0.23 0.31 0.32 0.25 0.31 0.33 0.31 0.29 0.25 0.21 0.28 0.41 0.43 0.52 0.61 0.67 0.76 0.85 0.88 1.00 1.24 1.31 1.37 1.49 1.46 1.45 1.38 1.68 1.74 1.77 1.71 1.79 1.69 1.61 1.52 1.39 1.36 1.35 1.35 1.33 1.26
0.31 0.34 0.32 0.28 0.33 0.23 0.27 0.40 0.41 0.36 0.35 0.34 0.30 0.33 0.46 0.53 0.60 0.61 0.77 0.77 0.82 1.01 1.11 1.24 1.31 1.41 1.43 1.53 1.61 1.78 1.76 1.90 1.76 1.76 1.80 1.78 1.66 1.50 1.55 1.43 1.31 1.30 1.33 1.32
0.38 0.35 0.29 0.25 0.26 0.27 0.29 0.38 0.42 0.42 0.35 0.51 0.49 0.47 0.44 0.52 0.58 0.62 0.84 0.93 0.79 0.98 1.04 1.20 1.31 1.35 1.50 1.63 1.63 1.60 1.76 2.10 1.90 1.75 1.78 1.77 1.77 1.64 1.59 1.47 1.37 1.35 1.31 1.29
0.46 0.44 0.39 0.34 0.26 0.19 0.31 0.43 0.52 0.49 0.33 0.56 0.56 0.53 0.48 0.45 0.39 0.64 0.87 1.10 0.93 0.86 0.89 1.01 1.34 1.45 1.44 1.56 1.69 1.59 1.53 1.59 1.65 1.92 1.86 1.83 1.80 1.74 1.58 1.59 1.55 1.52 1.40 1.28
0.36 0.38 0.34 0.35 0.30 0.30 0.45 0.47 0.51 0.33 0.39 0.59 0.58 0.53 0.50 0.46 0.55 0.78 0.95 1.01 1.21 1.08 1.03 1.09 1.20 1.32 1.30 1.38 1.44 1.61 1.66 1.40 1.55 2.13 1.98 1.89 1.82 1.78 1.70 1.69 1.72 1.65 1.56 1.44
0.37 0.34 0.34 0.37 0.31 0.26 0.55 0.49 0.40 0.50 0.55 0.56 0.56 0.55 0.53 0.54 0.52 0.68 0.87 0.96 1.10 1.13 1.13 1.08 1.09 1.11 1.19 1.23 1.18 1.13 1.28 1.62 1.82 1.91 1.96 1.90 1.84 1.82 1.83 1.69 1.72 1.72 1.64 1.53
0.35 0.41 0.37 0.39 0.38 0.54 0.56 0.51 0.57 0.57 0.52 0.51 0.53 0.56 0.56 0.54 0.50 0.54 0.66 0.88 0.93 1.04 1.16 1.16 1.10 1.06 1.07 1.07 1.08 1.03 1.16 1.36 1.54 1.57 1.77 1.84 1.89 1.85 1.87 1.77 1.70 1.70 1.72 1.56
0.45 0.53 0.41 0.41 0.45 0.49 0.50 0.54 0.55 0.54 0.50 0.51 0.52 0.52 0.55 0.50 0.51 0.52 0.55 0.74 0.89 0.94 0.97 1.06 1.02 0.98 0.99 1.02 1.00 1.01 1.12 1.32 1.36 1.40 1.63 1.80 1.75 1.79 1.86 1.87 1.82 1.74 1.69 1.62
0.43 0.45 0.40 0.40 0.48 0.50 0.54 0.57 0.58 0.55 0.55 0.51 0.53 0.53 0.49 0.49 0.47 0.54 0.56 0.69 0.87 0.92 0.93 0.91 0.88 0.84 0.88 0.98 0.98 1.02 1.08 1.15 1.26 1.37 1.61 1.69 1.72 1.74 1.83 1.84 1.79 1.75 1.80 1.77
0.48 0.41 0.35 0.33 0.47 0.51 0.52 0.58 0.61 0.60 0.60 0.62 0.60 0.59 0.61 0.53 0.47 0.56 0.57 0.71 0.89 0.89 0.91 0.84 0.85 0.87 0.82 0.93 0.97 1.04 1.09 1.18 1.25 1.41 1.67 1.68 1.71 1.72 1.79 1.80 1.78 1.90 1.91 1.95
Wind_Speed
19 17 19 19 19 19 19 19 17 15 14 16 21 16 19 18 12 13 18 18 21 22 22 22 22 22 20 20 20 18 18 19 17 16 16 14 13 13 11 10 8 8 8 7
19 22 19 18 20 20 21 20 19 17 15 16 18 19 20 19 16 16 15 20 21 22 23 24 22 22 21 21 20 20 20 20 19 17 18 15 14 13 11 10 9 8 7 7
21 19 22 22 21 21 22 21 19 18 18 16 16 15 18 20 16 14 12 18 17 23 24 25 23 23 22 22 22 22 21 21 20 19 18 16 15 14 13 11 11 8 7 7
21 23 23 23 23 22 20 20 20 20 18 16 12 15 20 22 18 17 17 16 17 16 24 25 25 23 23 23 23 22 23 23 22 21 20 19 16 16 14 14 11 9 7 7
19 21 22 25 23 22 23 21 20 20 20 18 23 14 16 20 17 17 20 16 22 22 27 27 27 24 24 24 24 24 24 24 24 22 22 21 19 17 15 14 13 10 8 7
19 20 19 21 23 23 18 20 23 20 18 20 23 18 20 18 21 20 19 16 28 28 26 29 28 26 24 24 25 25 25 25 25 24 23 23 21 19 17 16 15 13 10 8
16 20 22 21 19 22 23 19 18 19 20 23 20 24 24 18 22 23 24 24 22 32 28 31 29 27 24 24 26 26 26 26 27 26 25 24 24 22 19 17 16 16 13 10
16 16 18 15 23 20 22 24 20 21 20 23 24 23 23 24 20 24 26 28 25 27 31 34 31 29 27 24 25 26 27 27 28 28 27 25 25 25 22 18 18 17 14 12
14 20 18 18 17 27 24 24 25 24 25 23 22 22 26 21 22 25 27 27 27 28 29 34 33 31 29 26 25 25 27 27 28 29 28 27 26 27 25 22 19 18 16 14
16 18 18 18 18 16 23 24 21 22 24 27 22 23 19 16 19 23 29 30 29 28 26 27 29 33 30 30 28 26 26 27 27 29 29 29 28 27 27 25 22 20 18 16
15 18 21 19 17 15 15 20 24 23 22 27 26 25 23 19 11 21 28 32 32 30 27 27 26 29 33 33 31 29 27 26 27 27 30 30 30 29 28 27 25 22 20 18
16 19 20 25 28 25 25 25 26 25 25 24 23 26 27 20 18 23 22 28 32 32 30 29 25 36 35 37 33 31 29 28 27 27 28 32 32 31 30 29 28 25 23 21
18 20 20 21 23 21 20 21 22 24 24 28 25 24 16 15 11 10 7 6 28 31 32 31 27 26 40 35 36 33 31 29 27 26 28 30 32 33 32 31 29 29 26 25
18 20 23 25 24 21 23 25 23 22 26 27 29 29 18 14 11 8 6 5 9 25 29 31 26 26 43 34 35 33 32 29 28 27 28 29 32 33 33 32 33 30 29 28
16 22 25 29 31 28 30 29 28 26 25 25 29 25 21 19 14 11 7 5 2 12 20 24 24 24 28 31 28 30 33 31 29 27 27 28 30 32 33 33 32 33 31 30
16 19 22 29 31 32 33 33 31 31 28 27 28 28 20 21 21 16 13 12 9 9 9 15 18 26 32 28 29 27 27 33 30 27 27 28 29 30 32 33 33 33 33 32
14 15 17 21 23 27 33 33 32 33 31 27 28 24 19 22 23 22 21 17 14 14 13 12 10 16 24 26 30 31 32 32 31 29 27 27 28 29 31 32 33 32 33 32
17 14 13 16 16 18 25 27 31 33 32 27 29 21 20 23 24 25 23 26 23 18 15 14 14 11 9 22 26 30 31 31 34 30 28 27 26 28 29 30 32 32 32 33
14 14 14 13 15 18 21 20 17 20 26 17 18 20 21 26 25 23 23 24 28 26 20 19 17 16 12 16 20 21 31 42 31 30 29 27 27 27 28 29 30 31 32 32
12 12 12 12 12 13 9 17 22 24 26 18 18 20 22 26 27 25 23 25 31 33 32 26 22 21 20 18 18 20 20 21 24 30 29 28 27 28 29 29 29 30 31 31
10 8 12 15 16 15 14 16 19 23 26 23 23 23 24 24 29 30 25 25 22 24 27 28 26 23 22 22 19 18 20 31 27 30 31 29 28 28 29 29 30 30 30 31
8 8 7 8 12 17 14 13 16 22 26 28 29 29 28 28 30 32 30 28 26 24 25 27 27 25 24 23 23 24 23 22 24 26 32 32 30 29 29 29 29 30 30 31
6 7 9 8 10 12 15 20 22 23 26 29 31 34 35 34 32 34 35 34 32 28 26 25 27 26 25 25 25 25 26 26 27 28 31 33 32 31 31 30 30 29 30 30
8 9 9 12 10 16 19 17 21 27 31 34 38 39 39 40 38 37 38 39 36 35 31 29 29 29 29 27 27 27 27 27 26 30 32 33 32 31 31 31 31 30 30 29
9 12 12 12 14 19 12 18 21 24 26 32 39 43 47 45 42 40 38 40 40 37 33 31 30 29 31 31 29 27 27 27 27 28 34 34 33 32 31 31 32 31 31 31
8 10 12 12 16 16 16 17 19 20 20 22 26 36 43 47 44 41 40 39 38 38 38 35 33 30 29 29 30 28 27 27 27 27 28 33 33 32 32 32 30 31 31 32
Wind_Direction
223 226 225 227 233 237 242 248 255 248 244 240 224 213 212 211 207 197 184 221 203 197 197 193 188 188 189 187 188 187 187 186 183 181 180 178 169 165 163 156 150 140 130 117
228 228 230 228 234 233 239 248 252 253 254 233 236 225 215 215 215 209 237 202 205 196 198 197 193 192 194 192 192 192 191 190 188 185 184 184 180 175 171 170 163 151 142 132
228 230 227 232 234 236 238 239 245 248 260 265 237 235 220 225 225 228 218 203 206 198 201 200 198 198 197 196 195 195 194 193 192 190 188 188 186 185 179 177 169 160 149 144
233 232 236 231 234 237 240 240 242 246 253 247 237 247 233 223 228 221 210 204 213 211 203 205 202 200 201 200 198 197 197 196 196 195 194 193 191 186 184 180 179 173 164 156
237 231 235 236 239 233 241 243 244 247 251 250 250 246 246 213 221 227 206 230 225 225 217 208 207 205 203 202 201 200 199 199 199 198 198 197 196 192 192 189 187 182 172 169
247 245 239 238 242 238 242 240 244 246 246 245 240 240 247 224 226 222 225 221 229 229 221 209 208 206 204 204 203 202 201 202 202 201 201 201 199 197 195 193 192 190 185 179
243 243 242 244 248 239 238 240 241 243 242 244 246 245 240 248 227 219 215 220 219 221 215 210 205 206 205 205 206 206 204 203 204 204 204 203 203 201 199 197 197 194 194 192
246 251 227 236 237 240 237 231 230 237 238 248 247 248 248 247 235 226 222 221 223 213 214 211 207 207 208 208 208 208 208 206 205 205 206 206 205 205 204 201 200 198 200 202
252 240 255 251 260 236 236 238 236 242 248 250 248 253 249 247 247 231 224 222 225 220 219 207 210 209 210 210 210 209 208 209 208 207 207 207 207 206 207 206 204 205 205 204
253 250 243 254 261 246 231 236 238 239 236 245 247 251 245 249 248 238 230 225 221 218 214 214 218 211 212 213 213 211 210 209 209 210 210 209 209 209 209 209 210 209 209 210
256 247 247 253 237 251 260 240 238 239 238 242 247 244 241 238 282 276 234 226 219 217 219 219 222 227 219 213 213 212 211 210 210 211 212 212 211 211 211 212 213 213 215 215
265 255 254 252 252 255 256 251 238 232 241 240 240 243 242 254 286 309 237 225 221 220 221 225 238 228 221 215 214 213 213 212 213 213 213 213 213 213 214 215 216 217 218 217
267 258 259 260 251 238 246 252 254 235 239 241 239 240 240 253 275 310 263 261 219 217 219 222 230 215 217 219 211 213 211 213 213 215 215 214 215 216 217 217 218 219 221 221
272 259 254 249 249 251 252 257 258 247 235 240 239 241 238 253 257 282 258 272 245 211 215 219 224 226 217 210 209 212 211 212 215 216 216 216 216 217 218 219 220 221 222 223
278 264 261 258 254 254 250 249 252 252 242 233 237 242 235 236 242 240 232 221 200 197 218 222 219 230 211 209 220 214 214 213 214 217 217 218 217 218 219 219 220 221 223 224
280 280 271 261 257 252 250 243 245 247 244 241 241 239 240 237 234 234 232 223 223 215 210 203 234 225 219 218 205 210 217 217 214 217 220 221 220 219 220 220 221 222 223 225
283 276 275 257 260 256 244 236 239 243 243 240 238 232 245 235 229 236 230 226 228 233 242 221 229 216 220 219 210 225 224 221 216 218 220 221 221 221 220 220 221 222 223 224
277 268 263 262 258 248 235 242 239 241 245 247 240 241 235 234 231 229 236 228 233 234 233 230 230 231 220 212 226 220 221 220 213 216 218 220 222 221 221 221 221 222 224 225
276 269 266 253 252 254 247 230 223 233 231 238 236 236 238 236 227 222 243 234 224 223 230 238 241 237 236 227 222 231 225 222 212 213 217 221 223 222 221 221 222 223 224 225
306 278 254 264 255 244 235 237 236 234 224 240 237 231 235 236 222 227 241 237 234 236 240 242 246 233 229 236 234 234 222 216 221 220 220 223 224 224 223 223 223 223 225 226
314 304 257 252 249 251 270 256 236 230 231 242 240 237 236 234 228 236 239 236 231 228 234 236 237 234 232 237 239 235 233 226 239 225 224 225 226 226 225 225 225 225 226 228
331 321 303 286 245 244 277 252 241 244 246 243 241 242 241 239 241 239 238 239 236 238 238 238 237 238 236 239 242 242 239 237 234 232 225 226 228 228 226 225 225 226 227 229
339 347 316 286 277 293 273 262 258 257 251 249 247 245 244 241 240 242 240 239 238 238 239 240 238 239 241 243 244 244 245 245 240 237 229 226 227 228 227 226 225 226 227 230
341 333 317 312 305 295 285 274 272 265 259 255 250 249 248 244 240 242 240 237 237 237 240 241 243 246 247 247 248 247 247 245 242 237 231 225 226 227 227 227 228 227 228 230
351 349 341 328 313 304 271 292 288 278 273 261 255 254 247 241 238 238 239 236 235 235 239 240 244 247 247 247 246 246 245 244 241 240 229 225 225 227 227 228 228 228 230 230
341 346 353 344 342 332 304 296 298 286 282 274 277 262 241 234 234 233 235 235 232 233 237 240 243 246 245 245 243 244 245 243 241 238 229 225 225 227 227 228 228 230 232 232